CAPE
nan nan nan nan nan nan nan 0 nan nan nan nan nan nan nan 1 1 1 9 6 6 5 8 11 11 13 29 78 110 110 130 139 154 154 153 143 142 142 135 145 145 152 165 172 172 183 187 197 197 201 204 208 210 210 212 214 214 229 239 255 255 282 304 317 317 335 347 359 358 358 354 342 333 333 319 299 287 287 290 292 292 306 315 322 322 319
nan nan nan nan nan nan nan 0 nan nan nan nan nan nan nan nan 0 0 5 10 10 11 11 17 17 16 17 54 103 103 112 122 128 128 132 128 127 127 129 140 140 150 152 163 163 166 168 167 167 173 174 177 180 180 187 189 189 201 207 225 225 253 268 290 290 302 319 332 339 339 328 318 302 302 272 260 269 269 286 286 286 307 319 321 321 340
nan nan nan 0 0 nan nan nan 0 0 nan nan nan nan 0 1 1 1 5 15 15 16 16 14 14 15 16 36 83 83 94 103 110 110 113 119 123 123 125 134 134 133 138 140 140 142 143 146 146 153 159 170 182 182 190 195 195 195 207 225 225 236 264 283 283 288 294 300 306 306 304 287 266 266 250 238 269 269 298 316 316 328 324 334 334 350
1 nan nan 0 0 0 nan nan nan nan 0 0 0 0 1 2 6 6 12 14 14 15 22 17 17 9 8 16 53 53 81 90 98 98 105 104 105 105 106 107 107 106 111 112 112 121 128 133 133 148 161 178 193 193 201 214 214 225 229 245 245 255 268 280 280 279 280 276 268 268 274 268 257 257 257 282 316 316 341 332 332 317 320 334 334 350
5 0 nan 0 0 0 0 nan nan nan 0 1 2 2 6 10 18 18 24 31 31 27 11 4 4 2 3 7 34 34 70 82 84 84 91 84 83 83 82 81 81 86 89 95 95 102 113 133 133 148 163 187 198 198 218 226 226 233 237 260 260 255 273 273 273 267 271 275 289 289 275 271 268 268 286 317 326 326 340 308 308 287 292 318 318 355
3 2 1 0 0 0 0 0 1 1 2 2 9 9 16 22 27 27 36 23 23 9 1 0 0 1 2 2 25 25 55 63 66 66 65 64 67 67 69 77 77 83 89 97 97 106 120 137 137 150 167 180 193 193 198 201 201 204 208 214 214 241 247 256 256 262 262 258 258 258 231 229 235 235 250 262 266 266 269 247 247 242 247 266 266 299
3 3 4 1 1 0 0 0 1 1 1 5 17 17 17 22 17 17 12 4 4 0 1 1 1 2 1 3 19 19 35 37 43 43 47 58 64 64 74 79 79 87 95 100 100 111 127 146 146 146 151 159 166 166 166 176 176 185 199 213 213 230 233 227 227 229 221 203 190 190 171 170 176 176 181 191 192 192 193 183 183 186 198 216 216 247
4 2 4 1 1 0 0 1 4 4 23 28 17 17 9 3 1 1 5 9 9 5 0 nan nan nan nan nan nan nan nan 0 1 1 10 24 49 49 63 80 80 93 105 114 114 116 116 114 114 114 116 127 140 140 145 144 144 146 153 154 154 151 152 151 151 148 142 139 132 132 129 126 124 124 124 128 130 130 136 140 140 153 173 197 197 219
5 2 0 2 2 2 2 5 19 19 28 22 12 12 3 0 0 0 1 1 1 1 nan nan nan nan nan nan nan nan 4 11 6 6 11 8 10 10 47 79 79 94 106 107 107 107 106 106 106 109 114 119 129 129 127 123 123 119 116 116 116 118 121 125 125 133 132 135 138 138 140 129 122 122 117 118 122 122 124 133 133 149 165 191 191 225
7 2 1 3 3 3 5 29 27 27 23 18 12 12 3 0 0 0 0 nan nan nan nan nan nan nan nan 0 0 0 4 15 52 52 69 55 83 83 69 63 63 60 87 90 90 91 89 94 94 99 104 106 109 109 107 101 101 95 95 94 94 104 111 116 116 130 138 141 143 143 143 133 126 126 124 120 119 119 126 129 129 138 161 188 188 220
3 2 2 2 2 5 17 25 9 9 13 11 6 6 2 1 1 1 nan nan nan nan nan nan nan 0 1 0 1 1 4 4 10 10 36 55 66 66 64 59 59 61 69 69 69 69 71 76 76 80 85 87 86 86 82 78 78 82 85 89 89 94 103 114 114 125 142 150 148 148 147 147 141 141 133 131 130 130 130 134 134 145 161 182 182 210
0 0 1 11 11 15 10 4 6 6 5 2 0 0 0 0 2 2 0 nan nan nan nan nan nan 2 2 1 4 4 5 6 5 5 11 20 26 26 19 14 14 22 31 38 38 49 59 63 63 69 64 62 70 70 69 62 62 73 80 87 87 92 101 116 116 126 141 153 151 151 154 157 148 148 148 149 145 145 143 142 142 153 170 180 180 197
0 1 17 18 18 7 2 1 1 1 1 0 nan nan nan nan 1 1 3 1 1 1 0 1 1 3 5 3 5 5 8 9 10 10 10 7 4 4 2 2 2 2 4 7 7 7 31 50 50 55 58 55 62 62 65 63 63 70 78 88 88 97 110 124 124 131 143 151 155 155 155 158 161 161 166 167 164 164 163 158 158 160 175 180 180 185
5 10 3 1 1 2 2 1 0 0 0 nan nan nan nan 0 1 1 2 3 3 1 4 3 3 4 7 7 10 10 8 7 7 7 6 5 5 5 4 4 4 5 6 4 4 5 19 26 26 18 40 42 48 48 51 62 62 74 83 97 97 111 120 129 129 137 141 142 157 157 159 167 172 172 177 181 182 182 178 174 174 174 176 178 178 177
11 5 1 0 0 1 1 0 0 0 nan nan 0 0 1 3 4 4 4 0 0 2 11 9 9 9 9 10 4 4 3 4 4 4 4 4 6 6 5 4 4 5 5 5 5 3 18 15 15 5 9 19 25 25 41 56 56 91 93 108 108 116 120 127 127 130 137 150 158 158 169 175 180 180 185 183 187 187 184 187 187 186 193 193 193 193
2 1 0 1 1 1 0 0 nan nan nan 0 2 2 2 2 2 2 5 8 8 11 14 9 9 6 4 4 3 3 0 1 2 2 1 5 7 7 3 2 2 6 5 3 3 4 7 6 6 7 10 27 51 51 63 74 74 93 101 110 110 113 116 116 116 126 130 145 159 159 171 173 184 184 195 194 199 199 198 196 196 206 210 215 215 214
3 3 0 1 1 1 0 nan nan nan 1 2 3 3 2 0 1 1 5 11 11 4 10 7 7 3 2 1 3 3 2 0 2 2 2 4 6 6 6 2 2 5 4 3 3 5 6 8 8 10 13 42 63 63 68 81 81 93 98 101 101 101 103 112 112 120 134 144 159 159 172 178 185 185 191 199 200 200 205 210 210 210 209 220 220 219
6 3 1 1 1 0 nan nan 1 1 3 3 2 2 3 7 2 2 5 15 15 7 11 5 5 nan 0 1 0 0 3 0 1 1 5 4 4 4 5 4 4 4 3 2 2 4 5 5 5 5 21 66 74 74 76 81 81 89 92 91 91 97 96 107 107 123 138 148 157 157 164 171 175 175 184 186 188 188 194 199 199 199 204 203 203 203
5 2 1 0 0 nan nan 0 2 2 2 2 4 4 8 9 4 4 6 8 8 8 7 5 5 3 3 nan 0 0 2 nan 0 0 5 6 5 5 4 5 5 8 4 2 2 3 6 11 11 35 56 72 77 77 80 81 81 87 88 89 89 91 97 105 105 119 129 133 140 140 147 150 153 153 155 163 165 165 167 179 179 185 187 194 194 193
5 3 2 0 0 0 1 4 5 5 6 11 11 11 3 5 8 8 10 8 8 7 4 3 3 7 9 6 2 2 2 2 3 3 3 4 3 3 4 4 4 8 4 5 5 6 9 10 10 20 50 63 71 71 74 78 78 81 83 87 87 91 96 101 101 109 110 115 124 124 131 130 136 136 138 140 146 146 150 157 157 164 172 187 187 188
3 2 0 0 0 1 2 7 10 10 18 17 4 4 3 9 11 11 9 6 6 6 8 7 7 11 9 8 4 4 5 5 4 4 3 3 4 4 4 4 4 6 5 6 6 9 12 10 10 13 30 57 64 64 70 71 71 73 81 86 86 90 94 95 95 101 105 111 117 117 119 120 122 122 123 122 125 125 132 135 135 147 155 167 167 173
2 1 0 0 0 2 7 6 14 14 19 8 4 4 14 13 7 7 6 8 8 10 11 14 14 11 11 7 5 5 9 8 5 5 4 6 5 5 3 4 4 6 8 6 6 13 14 5 5 3 25 52 58 58 64 64 64 71 80 87 87 88 92 91 91 96 99 103 108 108 108 110 112 112 113 112 116 116 122 131 131 139 147 156 156 164
1 0 1 2 2 6 12 12 13 13 25 17 27 27 23 14 8 8 9 12 12 10 13 13 13 13 12 9 8 8 7 5 3 3 1 2 4 4 3 5 5 4 8 6 6 5 6 3 3 4 22 54 54 54 58 64 64 73 78 85 85 86 88 87 87 91 93 94 100 100 106 108 118 118 118 120 122 122 123 138 138 142 149 158 158 160
6 7 4 8 8 12 7 10 17 17 23 17 15 15 19 18 14 14 15 13 13 13 12 15 15 12 12 7 4 4 4 3 1 1 nan 3 4 4 2 3 3 3 5 3 3 3 2 3 3 4 11 43 51 51 57 63 63 71 77 79 79 80 79 82 82 82 91 98 107 107 110 119 122 122 128 131 132 132 138 140 140 145 152 150 150 154
6 10 19 28 28 45 38 38 35 35 16 9 14 14 26 29 32 32 18 14 14 13 13 11 11 8 6 7 1 1 1 2 2 2 2 0 nan nan 1 3 3 3 4 1 1 2 2 3 3 3 4 19 41 41 50 58 58 65 65 66 66 66 70 74 74 78 82 91 99 99 103 109 108 108 114 115 117 117 121 123 123 129 132 131 131 134
24 31 47 81 81 116 106 84 67 67 45 20 13 13 15 24 20 20 18 14 14 9 7 5 5 7 4 1 0 0 1 3 2 2 1 nan 2 2 1 2 2 3 2 3 3 5 1 1 1 nan 0 6 31 31 41 48 48 53 55 58 58 60 58 62 62 65 69 70 74 74 77 81 88 88 86 87 94 94 94 102 102 102 106 107 107 111
83 110 140 126 126 92 66 58 66 66 84 67 28 28 20 15 14 14 14 10 10 5 2 4 4 6 5 3 1 1 1 3 3 3 4 nan 0 0 1 1 1 2 5 2 2 2 3 4 4 1 1 1 10 10 32 37 37 42 46 46 46 46 47 48 48 50 51 52 54 54 61 66 71 71 74 82 86 86 90 95 95 97 102 97 97 98
98 103 79 52 52 39 40 49 56 56 59 64 74 74 48 16 14 14 9 6 6 3 2 3 3 6 5 1 2 2 2 4 2 2 3 3 3 3 2 0 0 2 1 2 2 7 17 8 8 3 1 0 2 2 14 27 27 31 34 33 33 32 37 37 37 39 45 44 50 50 55 60 65 65 69 76 82 82 91 100 100 104 109 97 97 72
68 45 27 23 23 24 32 37 40 40 46 56 70 70 52 14 9 9 8 5 5 1 1 6 6 6 5 3 2 2 2 2 1 1 2 3 5 5 2 1 1 2 2 2 2 4 5 4 4 1 0 2 1 1 5 16 16 17 23 25 25 31 31 32 32 35 40 46 49 49 55 58 65 65 69 73 83 83 91 95 95 99 100 88 88 75
15 11 10 14 14 18 22 16 29 29 44 54 63 63 45 14 11 11 7 6 6 5 4 8 8 7 6 4 2 2 1 nan 0 0 1 2 5 5 3 3 3 1 2 3 3 1 0 1 1 0 0 3 1 1 nan 3 3 3 9 17 17 20 22 27 27 31 37 40 45 45 50 55 59 59 64 69 76 76 79 84 84 78 59 48 48 52
0 0 0 3 3 7 7 7 18 18 36 47 46 46 34 8 5 5 4 2 2 5 2 7 7 6 2 0 3 3 0 nan 0 0 0 3 5 5 6 3 3 1 3 1 1 1 0 nan nan 1 2 2 1 1 nan nan nan nan nan 1 1 5 13 16 16 22 27 33 37 37 41 46 51 51 54 62 63 63 69 72 72 62 33 26 26 28
3 2 3 4 4 4 3 3 4 4 5 5 6 6 9 7 4 4 1 2 2 2 2 4 4 6 6 2 1 1 1 0 3 3 5 nan 7 7 7 2 2 4 3 0 0 nan nan 1 1 nan nan nan nan nan nan nan nan nan nan nan nan nan 0 5 5 6 7 15 22 22 27 28 33 33 38 42 47 47 52 52 52 50 24 8 8 17
8 6 4 6 6 5 4 3 4 4 3 2 3 3 2 3 6 6 5 1 1 2 0 2 2 2 4 4 4 4 2 0 4 4 13 1 2 2 4 1 1 2 4 3 3 nan nan 0 0 0 0 nan nan nan nan nan nan nan nan nan nan nan nan 0 0 1 4 5 9 9 18 20 26 26 31 36 38 38 39 42 42 45 37 6 6 11
7 8 7 7 7 3 4 3 2 2 1 1 2 2 1 0 1 1 4 3 3 2 0 0 0 0 1 1 2 2 0 0 4 4 10 1 1 1 2 4 4 0 3 2 2 1 nan 2 2 0 nan 0 0 0 nan nan nan nan nan nan nan nan nan nan nan nan nan 0 nan nan 1 2 15 15 18 23 25 25 30 36 36 39 45 25 25 13
5 6 6 4 4 4 3 3 2 2 1 0 1 1 1 1 0 0 2 2 2 0 nan nan nan nan 0 0 1 1 0 nan 4 4 13 1 0 0 0 5 5 0 0 1 1 1 nan 3 3 5 1 nan nan nan nan nan nan nan nan nan nan nan nan nan nan nan nan nan nan nan nan nan 0 0 4 12 18 18 26 31 31 37 42 48 48 37
5 7 7 5 5 4 1 2 1 1 0 nan 0 0 0 0 0 0 0 0 0 1 2 0 0 nan nan nan 0 0 1 nan 5 5 10 nan 0 0 nan 2 2 2 1 1 1 0 0 2 2 5 4 0 nan nan nan nan nan nan nan nan nan nan nan nan nan nan nan nan nan nan nan nan nan nan 2 16 22 22 27 29 29 32 36 42 42 43
8 6 6 5 5 3 3 1 0 0 nan nan 0 0 0 0 nan nan nan 0 0 1 0 3 3 2 4 nan nan nan 0 nan 1 1 6 1 0 0 0 2 2 4 1 0 0 1 0 0 0 3 1 0 nan nan nan nan nan nan nan nan nan nan nan nan nan nan nan nan nan nan nan 0 2 2 5 14 16 16 22 27 27 26 29 30 30 34
8 6 6 4 4 4 1 nan 0 0 0 nan 0 0 0 0 0 0 0 1 1 1 nan nan nan nan 5 10 2 2 0 nan nan nan 1 2 nan nan nan 1 1 4 2 0 0 0 0 0 0 0 0 nan 1 1 1 nan nan nan nan nan nan nan nan nan nan nan nan 0 2 2 2 1 0 0 0 2 1 1 2 3 3 10 17 20 20 27
7 5 5 5 5 3 0 0 0 0 nan 0 1 1 0 1 1 1 0 0 0 0 1 nan nan nan nan nan 4 4 5 2 0 0 nan 0 nan nan nan nan nan 1 2 1 1 0 0 0 0 0 0 0 0 0 nan nan nan nan nan nan nan nan nan nan nan nan nan nan 0 0 nan nan nan nan nan nan 0 0 0 0 0 3 4 2 2 13
9 6 5 6 6 3 0 0 nan nan nan 0 2 2 1 1 0 0 0 0 0 1 0 nan nan nan nan 1 1 1 2 nan 0 0 nan nan nan nan nan nan nan 1 1 0 0 0 0 0 0 2 2 nan 0 0 0 nan nan nan 0 nan nan nan nan nan nan nan nan nan nan nan nan nan nan nan nan 0 nan nan nan nan nan 1 3 0 0 0
9 7 5 3 3 4 1 0 nan nan nan 0 nan nan nan 0 0 0 nan 1 1 1 nan nan nan 0 0 nan nan nan nan nan nan nan nan nan nan nan nan nan nan nan nan 0 0 0 0 0 0 3 1 0 1 1 0 nan nan 1 2 nan nan nan nan nan nan nan nan nan nan nan nan 0 1 1 0 1 nan nan nan nan nan 0 1 nan nan nan
13 8 4 1 1 1 nan 0 1 1 1 nan nan nan nan nan nan nan nan 1 1 nan nan nan nan 0 1 0 nan nan nan nan nan nan nan nan nan nan nan nan nan nan nan 0 0 0 2 0 0 1 1 0 0 0 0 nan nan 0 0 nan nan nan nan nan nan nan nan nan nan nan 1 0 nan nan 0 nan nan nan 0 nan nan 1 2 0 0 nan
7 5 3 1 1 0 0 1 1 1 0 nan nan nan nan nan nan nan nan 0 0 0 0 0 0 1 1 1 nan nan nan nan nan nan nan nan nan nan nan nan nan nan nan nan nan 0 1 2 2 0 0 nan nan nan 0 0 0 nan nan nan nan nan nan nan nan nan nan nan nan nan nan nan nan nan 0 0 0 0 0 3 3 7 5 0 0 nan
5 3 2 1 1 1 1 0 nan nan nan nan nan nan nan nan 0 0 0 0 0 0 0 0 0 2 2 1 nan nan nan nan nan nan 0 0 nan nan nan 1 1 5 2 nan nan nan nan 1 1 0 nan nan nan nan nan nan nan nan nan nan nan nan nan nan nan nan nan nan nan nan nan nan nan nan 0 0 0 0 1 nan nan nan 3 1 1 nan
nan 4 3 2 2 2 1 0 nan nan 1 nan nan nan nan nan 0 0 nan 0 0 0 1 1 1 2 2 0 0 0 nan nan nan nan nan 0 7 7 5 2 2 0 0 nan nan nan nan nan nan 0 nan nan nan nan 0 nan nan nan nan nan nan nan nan nan nan nan nan nan nan nan nan nan nan nan nan 0 0 0 2 0 0 nan nan nan nan 0
2 3 3 2 2 0 0 0 0 0 0 nan nan nan nan nan nan nan nan nan nan 1 2 1 1 nan nan 0 nan nan 0 nan nan nan nan nan 2 2 1 1 1 nan nan nan nan 0 nan nan nan 0 0 0 0 0 nan nan nan nan nan nan nan nan nan nan nan nan nan nan nan nan nan nan nan nan nan nan 0 0 5 3 3 nan nan nan nan 1
3 1 2 1 1 nan 0 1 0 0 0 0 nan nan 0 nan 0 0 0 0 0 1 2 1 1 0 nan nan nan nan nan 0 nan nan nan nan 0 0 1 0 0 1 nan nan nan 0 1 0 0 1 nan 0 nan nan nan nan nan nan nan nan nan nan nan nan nan nan nan nan nan nan nan 0 nan nan 0 1 0 0 5 3 3 2 0 nan nan 1
4 3 1 0 0 nan 0 0 0 0 0 0 0 0 0 0 1 1 0 0 0 0 2 0 0 0 0 0 nan nan 0 0 nan nan nan nan nan nan 1 nan nan nan nan 1 1 2 1 nan nan 1 2 0 nan nan nan nan nan nan nan nan nan nan nan nan nan nan nan nan nan nan nan 0 0 0 1 0 nan nan 0 1 1 0 0 0 0 1
1 0 nan 1 1 0 0 0 0 0 nan nan 0 0 nan 1 8 8 0 nan nan nan 0 nan nan 0 0 0 0 0 1 1 nan nan nan nan 0 0 nan nan nan nan nan nan nan nan nan nan nan nan nan nan nan nan nan nan nan nan nan nan nan nan nan nan nan nan nan nan nan nan nan nan nan nan nan nan 0 0 0 nan nan nan nan nan nan nan
1 nan 0 0 0 0 0 0 0 0 0 nan 0 0 0 0 nan nan nan nan nan nan nan nan nan nan 0 0 0 0 0 0 nan nan nan nan 0 0 nan 0 0 1 nan nan nan nan nan nan nan nan nan nan nan nan nan nan nan 0 1 0 0 nan nan nan nan nan nan nan 0 0 nan nan nan nan nan nan 1 1 1 nan nan nan nan nan nan 0
2 0 nan nan nan nan 0 0 0 0 0 0 0 0 1 0 0 0 nan nan nan nan nan nan nan nan nan 0 0 0 0 nan nan nan nan nan 0 0 0 0 0 0 0 nan nan nan nan nan nan nan nan nan nan nan nan 0 0 2 1 0 0 nan nan nan nan nan 0 1 0 0 0 0 nan nan nan nan 0 0 0 nan nan nan nan nan nan 2
CIN
nan nan nan nan nan nan nan -0 nan nan nan nan nan nan nan -0 -0 -0 -0 -0 -0 -0 -0 -0 -0 -0 -0 -0 -0 -0 -0 -0 -0 -0 -0 -0 -0 -0 -0 -0 -0 -0 -0 -0 -0 -0 -0 -0 -0 -0 -0 -0 -0 -0 -0 -0 -0 -0 -0 -0 -0 -0 -0 -0 -0 -0 -0 -0 -0 -0 -0 -0 -0 -0 -0 -0 -0 -0 -0 -0 -0 -0 -0 -0 -0 -0
nan nan nan nan nan nan nan -0 nan nan nan nan nan nan nan nan -0 -0 -0 -0 -0 -0 -0 -0 -0 -0 -0 -0 -0 -0 -0 -0 -0 -0 -0 -0 -0 -0 -0 -0 -0 -0 -0 -0 -0 -0 -0 -0 -0 -0 -0 -0 -0 -0 -0 -0 -0 -0 -0 -0 -0 -0 -0 -0 -0 -0 -0 -0 -0 -0 -0 -0 -0 -0 -0 -0 -0 -0 -0 -0 -0 -0 -0 -0 -0 -0
nan nan nan -0 -0 nan nan nan -0 -0 nan nan nan nan -0 -0 -0 -0 -0 -0 -0 -0 -0 -0 -0 -0 -0 -0 -0 -0 -0 -0 -0 -0 -0 -0 -0 -0 -0 -0 -0 -0 -0 -0 -0 -0 -0 -0 -0 -0 -0 -0 -0 -0 -0 -0 -0 -0 -0 -0 -0 -0 -0 -0 -0 -0 -0 -0 -0 -0 -0 -0 -0 -0 -0 -0 -0 -0 -0 -0 -0 -0 -0 -0 -0 -0
-0 nan nan -0 -0 -0 nan nan nan nan -0 -0 -0 -0 -0 -0 -0 -0 -0 -0 -0 -0 -0 -0 -0 -0 -0 -0 -0 -0 -0 -0 -0 -0 -0 -0 -0 -0 -0 -0 -0 -0 -0 -0 -0 -0 -0 -0 -0 -0 -0 -0 -0 -0 -0 -0 -0 -0 -0 -0 -0 -0 -0 -0 -0 -0 -0 -0 -0 -0 -0 -0 -0 -0 -0 -0 -0 -0 -0 -0 -0 -0 -0 -0 -0 -0
-0 -0 nan -0 -0 -0 -0 nan nan nan -0 -0 -0 -0 -0 -0 -0 -0 -0 -0 -0 -0 -0 -0 -0 -0 -0 -0 -0 -0 -0 -0 -0 -0 -0 -0 -0 -0 -0 -0 -0 -0 -0 -0 -0 -0 -0 -0 -0 -0 -0 -0 -0 -0 -0 -0 -0 -0 -0 -0 -0 -0 -0 -0 -0 -0 -0 -0 -0 -0 -0 -0 -0 -0 -0 -0 -0 -0 -0 -0 -0 -0 -0 -0 -0 -0
-0 -0 -0 -0 -0 -0 -0 -0 -0 -0 -0 -0 -0 -0 -0 -0 -0 -0 -0 -0 -0 -0 -0 -0 -0 -0 -0 -0 -0 -0 -0 -0 -0 -0 -0 -0 -0 -0 -0 -0 -0 -0 -0 -0 -0 -0 -0 -0 -0 -0 -0 -0 -0 -0 -0 -0 -0 -0 -0 -0 -0 -0 -0 -0 -0 -0 -0 -0 -0 -0 -0 -0 -0 -0 -0 -0 -0 -0 -0 -0 -0 -0 -0 -0 -0 -0
-0 -0 -0 -0 -0 -0 -0 -0 -0 -0 -0 -0 -0 -0 -0 -0 -0 -0 -0 -0 -0 -0 -0 -0 -0 -0 -0 -0 -0 -0 -0 -0 -0 -0 -0 -0 -0 -0 -0 -0 -0 -0 -0 -0 -0 -0 -0 -0 -0 -0 -0 -0 -0 -0 -0 -0 -0 -0 -0 -0 -0 -0 -0 -0 -0 -0 -0 -0 -0 -0 -0 -0 -0 -0 -0 -0 -0 -0 -0 -0 -0 -0 -0 -0 -0 -0
-0 -0 -0 -0 -0 -0 -0 -0 -0 -0 -0 -0 -0 -0 -0 -0 -0 -0 -0 -0 -0 -0 -0 nan nan nan nan nan nan nan nan -0 -0 -0 -0 -0 -0 -0 -0 -0 -0 -0 -0 -0 -0 -0 -0 -0 -0 -0 -0 -0 -0 -0 -0 -0 -0 -0 -0 -0 -0 -0 -0 -0 -0 -0 -0 -0 -0 -0 -0 -0 -0 -0 -0 -0 -0 -0 -0 -0 -0 -0 -0 -0 -0 -0
-0 -0 -0 -0 -0 -0 -0 -0 -4 -4 -1 -0 -0 -0 -0 -0 -0 -0 -0 -0 -0 -0 nan nan nan nan nan nan nan nan -0 -0 -0 -0 -0 -0 -0 -0 -0 -0 -0 -0 -0 -0 -0 -0 -0 -0 -0 -0 -0 -0 -0 -0 -0 -0 -0 -0 -0 -0 -0 -0 -0 -0 -0 -0 -0 -0 -0 -0 -0 -0 -0 -0 -0 -0 -0 -0 -0 -0 -0 -0 -0 -0 -0 -0
-0 -0 -0 -0 -0 -0 -0 -0 -0 -0 -0 -0 -3 -3 -4 -0 -0 -0 -0 nan nan nan nan nan nan nan nan -0 -0 -0 -0 -0 -0 -0 -0 -0 -0 -0 -0 -0 -0 -0 -0 -0 -0 -0 -0 -0 -0 -0 -0 -0 -0 -0 -0 -0 -0 -0 -0 -0 -0 -0 -0 -0 -0 -0 -0 -0 -0 -0 -0 -0 -0 -0 -0 -0 -0 -0 -0 -0 -0 -0 -0 -0 -0 -0
-0 -0 -0 -0 -0 -1 -0 -0 -0 -0 -0 -1 -0 -0 -0 -0 -0 -0 nan nan nan nan nan nan nan -0 -0 -0 -0 -0 -0 -0 -0 -0 -0 -0 -0 -0 -0 -0 -0 -0 -0 -0 -0 -0 -0 -0 -0 -0 -0 -0 -0 -0 -0 -0 -0 -0 -0 -0 -0 -0 -0 -0 -0 -0 -0 -0 -0 -0 -0 -0 -0 -0 -0 -0 -0 -0 -0 -0 -0 -0 -0 -0 -0 -0
-0 -1 -0 -0 -0 -0 -0 -0 -0 -0 -0 -0 -0 -0 -0 -0 -0 -0 -0 nan nan nan nan nan nan -0 -0 -0 -0 -0 -0 -0 -0 -0 -0 -0 -0 -0 -0 -0 -0 -0 -0 -0 -0 -0 -0 -0 -0 -0 -0 -0 -0 -0 -0 -0 -0 -0 -0 -0 -0 -0 -0 -0 -0 -0 -0 -0 -0 -0 -0 -0 -0 -0 -0 -0 -0 -0 -0 -0 -0 -0 -0 -0 -0 -0
-12 -12 -0 -0 -0 -0 -0 -0 -0 -0 -0 -0 nan nan nan nan -0 -0 -0 -0 -0 -0 -0 -0 -0 -0 -0 -1 -0 -0 -0 -0 -0 -0 -0 -0 -0 -0 -0 -0 -0 -0 -0 -0 -0 -0 -0 -0 -0 -0 -0 -0 -0 -0 -0 -0 -0 -0 -0 -0 -0 -0 -0 -0 -0 -0 -0 -0 -0 -0 -0 -0 -0 -0 -0 -0 -0 -0 -0 -0 -0 -0 -0 -0 -0 -0
-0 -0 -0 -0 -0 -0 -0 -0 -0 -0 -0 nan nan nan nan -0 -0 -0 -0 -0 -0 -0 -0 -0 -0 -0 -0 -0 -0 -0 -0 -0 -0 -0 -0 -0 -0 -0 -0 -0 -0 -0 -0 -0 -0 -0 -0 -0 -0 -0 -0 -0 -0 -0 -0 -0 -0 -0 -0 -0 -0 -0 -0 -0 -0 -0 -0 -0 -0 -0 -0 -0 -0 -0 -0 -0 -0 -0 -0 -0 -0 -0 -0 -0 -0 -0
-0 -0 -0 -0 -0 -0 -0 -0 -0 -0 nan nan -0 -0 -0 -0 -0 -0 -0 -0 -0 -0 -0 -0 -0 -0 -0 -0 -0 -0 -0 -0 -0 -0 -0 -0 -0 -0 -0 -0 -0 -0 -0 -0 -0 -0 -0 -0 -0 -0 -0 -0 -0 -0 -0 -0 -0 -0 -0 -0 -0 -0 -0 -0 -0 -0 -0 -0 -0 -0 -0 -0 -0 -0 -0 -0 -0 -0 -0 -0 -0 -0 -0 -0 -0 -0
-0 -0 -0 -0 -0 -0 -0 -0 nan nan nan -0 -0 -0 -0 -0 -0 -0 -0 -0 -0 -0 -0 -1 -1 -1 -0 -0 -0 -0 -9 -0 -0 -0 -0 -0 -0 -0 -0 -0 -0 -0 -0 -0 -0 -0 -0 -0 -0 -0 -0 -0 -0 -0 -0 -0 -0 -0 -0 -0 -0 -0 -0 -0 -0 -0 -0 -0 -0 -0 -0 -0 -0 -0 -0 -0 -0 -0 -0 -0 -0 -0 -0 -0 -0 -0
-0 -0 -0 -0 -0 -0 -0 nan nan nan -0 -0 -0 -0 -0 -0 -2 -2 -0 -0 -0 -1 -0 -1 -1 -0 -0 -0 -0 -0 -0 -4 -1 -1 -1 -0 -0 -0 -0 -0 -0 -0 -0 -0 -0 -0 -0 -0 -0 -0 -0 -0 -0 -0 -0 -0 -0 -0 -0 -0 -0 -0 -0 -0 -0 -0 -0 -0 -0 -0 -0 -0 -0 -0 -0 -0 -0 -0 -0 -0 -0 -0 -0 -0 -0 -0
-0 -0 -0 -0 -0 -0 nan nan -0 -0 -0 -0 -0 -0 -0 -0 -5 -5 -0 -0 -0 -0 -0 -2 -2 nan -0 -0 -0 -0 -0 -6 -0 -0 -0 -0 -0 -0 -0 -0 -0 -0 -0 -0 -0 -0 -0 -0 -0 -0 -0 -0 -0 -0 -0 -0 -0 -0 -0 -0 -0 -0 -0 -0 -0 -0 -0 -0 -0 -0 -0 -0 -0 -0 -0 -0 -0 -0 -0 -0 -0 -0 -0 -0 -0 -0
-0 -0 -0 -0 -0 nan nan -0 -0 -0 -0 -0 -0 -0 -0 -0 -2 -2 -0 -0 -0 -1 -1 -0 -0 -0 -0 nan -0 -0 -0 nan -6 -6 -0 -0 -0 -0 -0 -0 -0 -0 -0 -0 -0 -0 -0 -0 -0 -0 -0 -0 -0 -0 -0 -0 -0 -0 -0 -0 -0 -0 -0 -0 -0 -0 -0 -0 -0 -0 -0 -0 -0 -0 -0 -0 -0 -0 -0 -0 -0 -0 -0 -0 -0 -0
-0 -0 -0 -0 -0 -0 -0 -0 -0 -0 -0 -0 -0 -0 -0 -0 -1 -1 -2 -2 -2 -2 -0 -1 -1 -0 -0 -0 -0 -0 -0 -4 -0 -0 -0 -0 -0 -0 -0 -0 -0 -0 -0 -0 -0 -0 -0 -0 -0 -0 -0 -0 -0 -0 -0 -0 -0 -0 -0 -0 -0 -0 -0 -0 -0 -0 -0 -0 -0 -0 -0 -0 -0 -0 -0 -0 -0 -0 -0 -0 -0 -0 -0 -0 -0 -0
-0 -0 -0 -0 -0 -0 -0 -0 -0 -0 -0 -0 -0 -0 -0 -0 -1 -1 -1 -2 -2 -1 -0 -0 -0 -0 -0 -0 -0 -0 -0 -1 -1 -1 -0 -0 -0 -0 -0 -0 -0 -0 -0 -0 -0 -0 -0 -0 -0 -0 -0 -0 -0 -0 -0 -0 -0 -0 -0 -0 -0 -0 -0 -0 -0 -0 -0 -0 -0 -0 -0 -0 -0 -0 -0 -0 -0 -0 -0 -0 -0 -0 -0 -0 -0 -0
-0 -0 -0 -0 -0 -0 -0 -0 -0 -0 -0 -1 -8 -8 -0 -1 -0 -0 -0 -0 -0 -0 -0 -0 -0 -0 -0 -1 -0 -0 -0 -0 -0 -0 -0 -0 -0 -0 -0 -0 -0 -0 -0 -0 -0 -0 -0 -0 -0 -0 -0 -0 -0 -0 -0 -0 -0 -0 -0 -0 -0 -0 -0 -0 -0 -0 -0 -0 -0 -0 -0 -0 -0 -0 -0 -0 -0 -0 -0 -0 -0 -0 -0 -0 -0 -0
-0 -0 -0 -0 -0 -0 -0 -0 -0 -0 -0 -0 -0 -0 -0 -0 -0 -0 -1 -0 -0 -0 -0 -0 -0 -0 -0 -0 -0 -0 -0 -0 -0 -0 -0 -0 -0 -0 -0 -0 -0 -0 -0 -0 -0 -0 -0 -0 -0 -0 -0 -0 -0 -0 -0 -0 -0 -0 -0 -0 -0 -0 -0 -0 -0 -0 -0 -0 -0 -0 -0 -0 -0 -0 -0 -0 -0 -0 -0 -0 -0 -0 -0 -0 -0 -0
-0 -0 -0 -0 -0 -3 -11 -10 -0 -0 -0 -1 -0 -0 -3 -1 -1 -1 -1 -1 -1 -0 -1 -0 -0 -0 -0 -0 -0 -0 -0 -0 -2 -2 nan -0 -0 -0 -0 -0 -0 -0 -0 -0 -0 -0 -0 -0 -0 -0 -0 -0 -0 -0 -0 -0 -0 -0 -0 -0 -0 -0 -0 -0 -0 -0 -0 -0 -0 -0 -0 -0 -0 -0 -0 -0 -0 -0 -0 -0 -0 -0 -0 -0 -0 -0
-0 -0 -0 -0 -0 -4 -2 -0 -0 -0 -0 -0 -0 -0 -0 -0 -0 -0 -0 -0 -0 -0 -0 -0 -0 -0 -0 -0 -0 -0 -0 -0 -0 -0 -0 -0 nan nan -0 -0 -0 -0 -0 -0 -0 -0 -0 -0 -0 -0 -0 -0 -0 -0 -0 -0 -0 -0 -0 -0 -0 -0 -0 -0 -0 -0 -0 -0 -0 -0 -0 -0 -0 -0 -0 -0 -0 -0 -0 -0 -0 -0 -0 -0 -0 -0
-0 -0 -0 -0 -0 -0 -0 -0 -0 -0 -0 -0 -0 -0 -0 -0 -0 -0 -0 -0 -0 -0 -0 -0 -0 -0 -0 -0 -0 -0 -0 -0 -0 -0 -0 nan -0 -0 -0 -0 -0 -0 -0 -0 -0 -0 -0 -0 -0 nan -0 -0 -0 -0 -0 -0 -0 -0 -0 -0 -0 -0 -0 -0 -0 -0 -0 -0 -0 -0 -0 -0 -0 -0 -0 -0 -0 -0 -0 -0 -0 -0 -0 -0 -0 -0
-0 -0 -0 -0 -0 -0 -0 -0 -0 -0 -0 -0 -0 -0 -0 -0 -0 -0 -0 -0 -0 -0 -0 -0 -0 -0 -0 -0 -0 -0 -0 -0 -0 -0 -0 nan -0 -0 -0 -0 -0 -0 -0 -0 -0 -2 -0 -0 -0 -0 -0 -0 -0 -0 -0 -0 -0 -0 -0 -0 -0 -0 -0 -0 -0 -0 -0 -0 -0 -0 -0 -0 -0 -0 -0 -0 -0 -0 -0 -0 -0 -0 -0 -0 -0 -0
-0 -0 -0 -0 -0 -0 -0 -0 -0 -0 -0 -0 -0 -0 -0 -0 -0 -0 -0 -0 -0 -0 -0 -0 -0 -0 -0 -0 -0 -0 -0 -0 -0 -0 -0 -0 -0 -0 -0 -0 -0 -0 -0 -0 -0 -0 -0 -0 -0 -0 -0 -0 -0 -0 -0 -0 -0 -0 -0 -0 -0 -0 -0 -0 -0 -0 -0 -0 -0 -0 -0 -0 -0 -0 -0 -0 -0 -0 -0 -0 -0 -0 -0 -0 -0 -0
-0 -0 -0 -0 -0 -0 -0 -0 -0 -0 -0 -0 -0 -0 -0 -0 -0 -0 -0 -0 -0 -0 -0 -0 -0 -0 -0 -0 -0 -0 -0 -0 -0 -0 -0 -0 -0 -0 -0 -0 -0 -0 -0 -0 -0 -0 -0 -0 -0 -0 -0 -0 -0 -0 -0 -0 -0 -0 -0 -0 -0 -0 -0 -0 -0 -0 -0 -0 -0 -0 -0 -0 -0 -0 -0 -0 -0 -0 -0 -0 -0 -0 -0 -0 -0 -1
-0 -0 -0 -0 -0 -0 -0 -0 -0 -0 -0 -0 -0 -0 -0 -0 -0 -0 -0 -0 -0 -0 -0 -0 -0 -0 -0 -0 -0 -0 -0 nan -0 -0 -0 -0 -0 -0 -0 -0 -0 -1 -0 -0 -0 -0 -0 -0 -0 -0 -0 -0 -0 -0 nan -0 -0 -0 -0 -0 -0 -0 -0 -0 -0 -0 -0 -0 -0 -0 -0 -0 -0 -0 -0 -0 -0 -0 -0 -0 -0 -0 -0 -1 -1 -1
-0 -0 -0 -0 -0 -0 -0 -0 -0 -0 -0 -0 -0 -0 -0 -0 -0 -0 -0 -0 -0 -0 -0 -0 -0 -0 -0 -0 -0 -0 -0 nan -0 -0 -0 -0 -0 -0 -0 -0 -0 -1 -0 -0 -0 -0 -0 nan nan -0 -0 -0 -0 -0 nan nan nan nan nan -0 -0 -0 -0 -0 -0 -0 -0 -0 -0 -0 -0 -0 -0 -0 -0 -0 -0 -0 -0 -0 -0 -0 -2 -1 -1 -0
-0 -0 -0 -0 -0 -0 -0 -0 -0 -0 -0 -0 -0 -0 -0 -0 -0 -0 -1 -0 -0 -0 -0 -0 -0 -0 -0 -0 -0 -0 -0 -0 -0 -0 -0 nan -0 -0 -0 -0 -0 -0 -0 -1 -1 nan nan -0 -0 nan nan nan nan nan nan nan nan nan nan nan nan nan -0 -0 -0 -0 -0 -0 -0 -0 -0 -0 -0 -0 -0 -0 -0 -0 -0 -0 -0 -0 -0 -0 -0 -0
-0 -0 -0 -0 -0 -0 -0 -0 -0 -0 -0 -0 -0 -0 -0 -0 -0 -0 -0 -0 -0 -0 -0 -0 -0 -0 -0 -0 -0 -0 -0 -0 -0 -0 -0 -1 -0 -0 -0 -0 -0 -0 -0 -0 -0 nan nan -0 -0 -1 -0 nan nan nan nan nan nan nan nan nan nan nan nan -0 -0 -0 -0 -0 -0 -0 -0 -0 -0 -0 -0 -0 -0 -0 -0 -0 -0 -0 -0 -1 -1 -0
-0 -0 -0 -0 -0 -0 -0 -0 -0 -0 -0 -0 -0 -0 -0 -0 -0 -0 -0 -0 -0 -0 -1 -0 -0 -0 -0 -0 -0 -0 -0 -0 -0 -0 -0 -0 -0 -0 -0 -0 -0 -0 -0 -0 -0 -0 nan -0 -0 -0 nan -0 -0 -0 nan nan nan nan nan nan nan nan nan nan nan nan nan -0 nan nan -0 -0 -0 -0 -0 -0 -0 -0 -0 -0 -0 -0 -0 -0 -0 -0
-0 -0 -0 -0 -0 -0 -0 -0 -0 -0 -0 -0 -0 -0 -0 -0 -0 -0 -0 -0 -0 -1 nan nan nan nan -0 -0 -0 -0 -0 nan -0 -0 -0 -0 -0 -0 -0 -0 -0 -0 -0 -0 -0 -0 nan -0 -0 -0 -0 nan nan nan nan nan nan nan nan nan nan nan nan nan nan nan nan nan nan nan nan nan -0 -0 -0 -0 -0 -0 -0 -0 -0 -0 -0 -0 -0 -0
-0 -0 -0 -0 -0 -0 -0 -0 -0 -0 -0 nan -0 -0 -0 -0 -0 -0 -0 -0 -0 -0 -0 -2 -2 nan nan nan -0 -0 -0 nan -0 -0 -0 nan -0 -0 nan -0 -0 -0 -0 -0 -0 -0 -0 -0 -0 -0 -0 -0 nan nan nan nan nan nan nan nan nan nan nan nan nan nan nan nan nan nan nan nan nan nan -0 -0 -0 -0 -0 -0 -0 -0 -0 -0 -0 -0
-0 -0 -0 -0 -0 -0 -0 -0 -0 -0 nan nan -0 -0 -0 -0 nan nan nan -5 -5 -5 -1 -0 -0 -0 -0 nan nan nan -0 nan -1 -1 -0 -2 -0 -0 -0 -0 -0 -0 -0 -0 -0 -0 -0 -0 -0 -0 -0 -0 nan nan nan nan nan nan nan nan nan nan nan nan nan nan nan nan nan nan nan -0 -0 -0 -0 -0 -0 -0 -0 -0 -0 -0 -0 -0 -0 -0
-0 -0 -0 -0 -0 -0 -0 nan -0 -0 -0 nan -0 -0 -0 -0 -0 -0 -0 -0 -0 -3 nan nan nan nan -0 -0 -6 -6 -7 nan nan nan -2 -3 nan nan nan -0 -0 -0 -0 -0 -0 -0 -0 -0 -0 -0 -0 nan -0 -0 -0 nan nan nan nan nan nan nan nan nan nan nan nan -0 -0 -0 -0 -0 -1 -1 -0 -0 -0 -0 -0 -0 -0 -0 -0 -0 -0 -0
-0 -0 -0 -0 -0 -0 -0 -0 -0 -0 nan -0 -0 -0 -0 -0 -0 -0 -0 -0 -0 -0 -0 nan nan nan nan nan -3 -3 -1 -5 -7 -7 nan -4 nan nan nan nan nan -0 -0 -0 -0 -0 -0 -0 -0 -0 -0 -0 -0 -0 nan nan nan nan nan nan nan nan nan nan nan nan nan nan -0 -0 nan nan nan nan nan nan -0 -0 -0 -0 -0 -0 -0 -0 -0 -0
-0 -0 -0 -0 -0 -0 -0 -0 nan nan nan -0 -0 -0 -0 -0 -0 -0 -0 -0 -0 -0 -0 nan nan nan nan -1 -1 -1 -3 nan -4 -4 nan nan nan nan nan nan nan -0 -0 -0 -0 -0 -0 -0 -0 -0 -0 nan -0 -0 -0 nan nan nan -0 nan nan nan nan nan nan nan nan nan nan nan nan nan nan nan nan -1 nan nan nan nan nan -0 -0 -2 -2 -1
-0 -0 -0 -0 -0 -0 -0 -0 nan nan nan -0 nan nan nan -0 -0 -0 nan -0 -0 -0 nan nan nan -0 -0 nan nan nan nan nan nan nan nan nan nan nan nan nan nan nan nan -0 -0 -0 -0 -0 -0 -0 -0 -0 -0 -0 -0 nan nan -0 -0 nan nan nan nan nan nan nan nan nan nan nan nan -0 -0 -0 -1 -0 nan nan nan nan nan -1 -0 nan nan nan
-0 -0 -0 -0 -0 -0 nan -0 -0 -0 -0 nan nan nan nan nan nan nan nan -0 -0 nan nan nan nan -0 -0 -0 nan nan nan nan nan nan nan nan nan nan nan nan nan nan nan -0 -0 -0 -0 -0 -0 -0 -0 -0 -0 -0 -0 nan nan -0 -0 nan nan nan nan nan nan nan nan nan nan nan -0 -1 nan nan -1 nan nan nan -2 nan nan -0 -0 -2 -2 nan
-0 -0 -0 -0 -0 -0 -0 -0 -0 -0 -0 nan nan nan nan nan nan nan nan -0 -0 -0 -0 -0 -0 -0 -0 -0 nan nan nan nan nan nan nan nan nan nan nan nan nan nan nan nan nan -0 -0 -0 -0 -0 -0 nan nan nan -0 -0 -0 nan nan nan nan nan nan nan nan nan nan nan nan nan nan nan nan nan -2 -3 -3 -3 -2 -0 -0 -0 -0 -1 -1 nan
-0 -0 -0 -0 -0 -0 -0 -0 nan nan nan nan nan nan nan nan -0 -0 -0 -0 -0 -0 -0 -0 -0 -0 -0 -0 nan nan nan nan nan nan -2 -1 nan nan nan -0 -0 -0 -0 nan nan nan nan -0 -0 -0 nan nan nan nan nan nan nan nan nan nan nan nan nan nan nan nan nan nan nan nan nan nan nan nan -3 -2 -2 -2 -2 nan nan nan -0 -0 -0 nan
nan -0 -0 -0 -0 -0 -0 -0 nan nan -0 nan nan nan nan nan -0 -0 nan -0 -0 -0 -0 -0 -0 -0 -0 -0 -0 -0 nan nan nan nan nan -2 -1 -1 -2 -1 -1 -1 -0 nan nan nan nan nan nan -0 nan nan nan nan -0 nan nan nan nan nan nan nan nan nan nan nan nan nan nan nan nan nan nan nan nan -3 -3 -3 -2 -3 -3 nan nan nan nan -1
-0 -0 -0 -0 -0 -0 -0 -0 -0 -0 -0 nan nan nan nan nan nan nan nan nan nan -0 -0 -0 -0 nan nan -0 nan nan -0 nan nan nan nan nan -1 -1 -1 -2 -2 nan nan nan nan -0 nan nan nan -0 -0 -0 -0 -0 nan nan nan nan nan nan nan nan nan nan nan nan nan nan nan nan nan nan nan nan nan nan -4 -4 -3 -3 -3 nan nan nan nan -1
-0 -0 -0 -0 -0 nan -0 -0 -0 -0 -0 -0 nan nan -0 nan -0 -0 -0 -0 -0 -0 -0 -0 -0 -0 nan nan nan nan nan -0 nan nan nan nan -0 -0 -0 -2 -2 -3 nan nan nan -0 -0 -0 -0 -0 nan -0 nan nan nan nan nan nan nan nan nan nan nan nan nan nan nan nan nan nan nan -2 nan nan -2 -1 -4 -4 -4 -6 -6 -5 -2 nan nan -0
-0 -0 -0 -0 -0 nan -0 -0 -0 -0 -0 -0 -0 -0 -0 -0 -0 -0 -0 -0 -0 -0 -0 -0 -0 -0 -0 -0 nan nan -0 -0 nan nan nan nan nan nan -0 nan nan nan nan -1 -1 -0 -0 nan nan -0 -0 -0 nan nan nan nan nan nan nan nan nan nan nan nan nan nan nan nan nan nan nan -1 -1 -1 -0 -1 nan nan -5 -10 -10 -12 -5 -1 -1 -0
-0 -0 nan -0 -0 -0 -0 -0 -0 -0 nan nan -0 -0 nan -0 -0 -0 -0 nan nan nan -0 nan nan -0 -0 -0 -0 -0 -0 -0 nan nan nan nan -0 -0 nan nan nan nan nan nan nan nan nan nan nan nan nan nan nan nan nan nan nan nan nan nan nan nan nan nan nan nan nan nan nan nan nan nan nan nan nan nan -2 -2 -2 nan nan nan nan nan nan nan
-0 nan -0 -0 -0 -0 -0 -0 -0 -0 -0 nan -0 -0 -0 -0 nan nan nan nan nan nan nan nan nan nan -0 -0 -0 -0 -0 -0 nan nan nan nan -0 -0 nan -0 -0 -0 nan nan nan nan nan nan nan nan nan nan nan nan nan nan nan -0 -0 -0 -0 nan nan nan nan nan nan nan -4 -4 nan nan nan nan nan nan -0 -0 -1 nan nan nan nan nan nan -3
-0 -0 nan nan nan nan -0 -0 -0 -0 -0 -0 -0 -0 -0 -0 -0 -0 nan nan nan nan nan nan nan nan nan -0 -0 -0 -0 nan nan nan nan nan -0 -0 -0 -0 -0 -0 -0 nan nan nan nan nan nan nan nan nan nan nan nan -0 -0 -0 -0 -0 -0 nan nan nan nan nan -0 -0 -2 -2 -4 -4 nan nan nan nan -1 -1 -2 nan nan nan nan nan nan -2
Wind_Speed
9 9 10 12 13 12 11 12 13 14 12 11 11 11 11 12 12 13 15 15 15 14 13 13 14 15 17 20 23 25 26 27 28 29 30 30 31 32 32 32 32 32 32 33 33 33 33 33 33 33 33 33 33 33 33 33 33 33 33 32 32 32 32 32 31 31 31 31 31 31 31 32 32 32 32 32 31 31 31 32 32 32 32 31 30 28
9 9 9 12 13 13 11 12 13 13 13 13 12 12 12 13 12 11 11 13 13 13 12 12 14 15 17 19 22 24 26 27 28 29 30 30 30 31 31 31 32 32 32 32 32 32 32 32 32 32 32 33 33 33 33 32 32 32 32 32 32 32 32 32 31 31 31 31 31 31 31 32 32 32 32 31 31 31 31 32 32 32 31 30 29 27
10 10 9 10 12 12 11 12 13 13 14 14 14 14 15 15 13 11 9 10 10 11 11 12 13 15 17 18 20 23 25 26 27 28 29 29 30 30 31 31 32 32 32 32 32 32 32 32 32 32 32 32 32 32 32 32 32 32 32 32 32 32 31 31 31 31 31 31 31 31 32 31 32 32 31 31 31 31 31 31 30 30 29 29 28 27
10 10 10 9 10 11 11 12 12 12 12 13 14 15 16 13 11 9 9 9 10 11 12 13 14 15 14 15 17 20 24 26 27 28 29 29 30 30 31 31 32 32 32 32 32 32 31 31 32 32 32 32 32 32 32 32 32 32 32 31 31 31 31 31 30 30 30 30 30 30 30 30 30 30 29 29 29 29 29 29 28 28 27 27 27 27
10 10 10 9 9 10 11 12 12 12 11 12 12 13 12 10 8 8 9 10 11 12 12 13 13 14 13 12 15 19 23 25 27 28 29 30 30 31 31 31 31 31 31 31 31 31 31 31 31 31 31 31 32 32 32 32 32 32 31 31 31 31 30 30 30 29 29 29 29 29 28 28 28 27 27 27 28 28 28 28 28 27 27 27 27 28
10 10 10 9 9 9 9 10 10 10 10 10 10 9 9 8 8 8 9 10 11 11 11 11 12 12 13 13 15 19 23 25 27 28 29 29 30 30 31 31 30 30 30 30 30 30 30 30 31 31 31 31 31 32 32 32 32 31 31 31 31 30 30 30 30 29 29 29 29 28 28 28 28 27 27 27 28 28 29 29 29 28 28 28 28 29
10 9 9 9 9 9 9 9 9 10 9 8 7 7 7 8 9 10 11 11 11 10 10 10 11 12 12 14 16 19 21 23 25 26 27 28 29 29 29 29 29 29 29 29 29 29 30 30 31 31 32 32 32 32 32 32 32 32 31 31 31 30 30 30 30 30 30 30 30 30 30 29 29 29 29 29 29 29 29 30 30 30 30 30 30 30
11 10 9 10 10 9 8 8 8 8 8 7 7 8 8 9 9 10 11 12 11 11 10 10 11 11 11 13 15 16 17 18 19 20 22 23 24 25 26 27 27 28 28 29 29 29 30 31 31 32 32 32 32 32 32 32 32 32 31 31 31 31 31 31 31 31 31 31 31 31 31 30 30 30 30 29 29 29 30 30 30 30 30 31 31 31
12 12 11 10 10 10 9 7 6 6 6 7 8 9 10 10 10 10 10 10 10 10 10 11 11 11 11 12 13 14 15 15 15 15 17 17 18 19 22 23 25 26 27 28 29 30 30 31 31 32 32 32 32 32 32 32 32 32 32 31 31 31 31 31 31 31 31 31 30 30 30 30 30 30 30 30 29 29 29 30 30 30 30 31 31 31
12 12 12 10 9 8 7 7 6 6 7 7 8 8 9 10 11 11 11 10 10 9 10 11 11 12 12 12 12 13 14 15 17 18 19 18 19 21 21 22 22 23 26 27 28 30 30 31 31 31 31 32 32 32 32 32 32 32 31 31 31 31 31 31 31 30 30 30 30 30 30 30 30 30 30 29 29 29 29 29 29 29 30 30 30 31
11 11 10 8 7 5 5 6 7 7 8 9 9 9 9 10 11 12 13 12 11 10 10 10 11 11 11 11 11 12 12 13 14 15 17 19 21 22 22 22 22 23 25 26 27 28 29 29 30 30 30 31 31 31 31 31 31 31 30 30 30 30 30 30 30 30 30 30 30 30 30 30 30 29 29 29 29 29 29 29 29 29 29 30 30 30
9 8 6 6 5 5 5 7 7 8 9 9 9 10 10 9 10 11 12 13 13 12 11 11 10 10 11 11 11 11 11 11 11 11 12 13 14 15 16 16 17 19 20 22 23 24 26 27 28 28 28 28 29 29 29 29 29 29 30 30 30 30 30 30 30 30 30 30 30 30 30 30 29 29 29 29 29 29 29 29 29 29 29 30 30 30
7 5 4 5 6 7 8 8 9 9 9 9 10 11 10 9 9 10 11 12 12 12 12 11 11 10 10 10 10 10 10 10 10 10 10 10 10 10 10 11 12 12 13 14 15 16 20 23 24 25 25 26 27 27 28 28 28 28 29 29 29 29 30 30 30 30 30 30 30 30 30 30 30 30 30 29 29 29 29 29 29 29 29 30 30 31
5 5 5 7 8 9 9 10 10 10 10 9 10 10 10 10 10 10 10 11 11 11 11 12 12 11 9 9 9 9 9 10 10 10 10 10 9 9 10 10 11 11 11 11 12 13 16 17 18 19 22 23 24 25 25 26 27 28 28 29 29 29 30 30 30 30 30 30 30 30 30 30 30 30 30 30 30 30 30 30 30 30 30 30 31 31
6 7 8 9 9 9 9 10 10 11 10 10 9 10 10 10 10 10 11 11 11 11 11 11 11 11 9 8 8 9 9 9 9 10 10 10 10 10 10 11 11 11 11 11 12 13 15 15 14 14 16 19 21 22 23 25 26 28 28 29 29 30 30 30 30 30 30 30 30 30 30 30 30 30 30 30 30 30 30 30 30 30 31 31 31 31
8 9 10 10 10 10 9 9 10 10 10 10 9 10 10 10 10 10 10 11 11 10 9 10 11 10 8 7 7 8 9 9 9 9 11 11 10 10 11 11 12 12 11 11 11 12 12 12 13 13 14 18 21 24 26 26 27 28 29 30 30 30 31 31 31 31 30 30 30 30 30 30 30 30 30 30 30 30 31 31 31 31 31 31 31 31
8 9 10 10 11 10 10 9 9 10 9 9 9 9 10 10 10 10 10 9 9 8 8 9 9 10 8 8 7 8 8 9 9 9 11 11 11 10 10 11 12 12 11 11 11 11 11 11 12 12 13 17 21 25 27 28 29 29 30 30 31 31 31 31 31 30 30 30 30 30 30 30 30 30 30 30 30 30 31 31 31 31 31 31 31 31
9 9 10 10 10 10 10 9 9 9 9 9 9 10 10 10 10 9 9 8 8 8 8 8 8 8 9 9 8 7 8 9 9 10 11 11 11 10 10 11 11 12 12 11 11 11 11 11 12 12 14 20 24 26 28 29 29 30 30 30 30 31 30 30 30 30 30 30 30 30 30 30 30 30 30 30 30 30 30 30 30 31 31 31 31 32
9 9 10 10 10 9 9 9 8 9 9 9 9 10 10 10 9 8 8 7 8 8 9 9 9 9 9 10 10 9 9 9 10 10 11 12 11 10 10 10 11 11 11 11 11 11 11 11 13 16 20 23 26 27 28 29 29 29 30 30 30 30 30 30 30 30 30 30 30 30 30 30 30 30 30 30 30 30 30 30 30 31 31 31 32 32
10 10 9 9 9 9 9 9 9 9 10 10 10 10 10 9 9 8 8 8 9 9 9 10 10 10 10 10 11 11 10 10 10 10 11 12 11 11 9 10 11 11 11 11 10 10 10 11 13 15 19 22 24 26 27 28 28 29 29 30 30 30 30 31 31 31 31 31 31 31 31 31 31 31 31 31 30 30 30 30 31 31 31 31 32 32
11 11 10 9 9 9 9 9 10 11 12 11 10 9 8 8 8 9 9 9 10 10 10 10 10 10 9 10 11 11 11 10 10 10 9 10 10 9 8 9 10 11 12 11 10 10 10 11 11 12 15 20 23 25 27 28 29 29 30 30 30 31 31 31 31 31 31 31 31 31 31 31 31 31 31 31 31 31 31 31 31 31 31 31 32 32
10 11 11 11 11 10 10 11 12 13 12 11 9 8 8 8 10 10 10 10 10 10 10 10 10 10 10 11 11 11 11 10 9 9 8 10 10 10 8 9 10 11 12 11 10 10 11 11 11 12 16 21 24 26 28 28 29 30 30 30 30 31 31 31 31 31 31 31 31 31 31 31 31 31 31 31 31 31 31 31 31 31 32 32 32 32
11 11 11 11 11 10 10 10 10 10 10 9 9 9 8 9 10 11 11 10 11 11 11 10 10 11 11 11 11 10 10 9 9 8 7 10 11 10 8 8 9 10 11 10 10 11 11 11 12 13 17 22 25 26 28 28 29 29 30 30 30 30 30 31 31 31 31 31 31 31 31 31 31 31 31 31 31 31 32 32 32 32 32 32 32 32
11 11 11 10 10 9 8 8 8 8 9 9 10 10 10 10 11 11 10 10 11 10 10 10 10 11 10 11 11 10 9 8 8 7 7 8 10 10 8 8 10 11 11 11 11 11 12 12 12 12 14 19 23 25 27 28 28 29 29 29 29 30 30 30 30 30 30 30 30 30 31 31 31 31 31 31 31 31 31 32 32 32 32 32 33 33
11 11 10 10 10 11 11 12 13 13 13 12 11 11 11 12 12 12 11 11 10 9 9 10 10 10 10 10 10 9 8 8 8 7 6 7 9 10 9 9 9 11 12 11 11 11 12 12 12 12 12 16 20 24 25 27 27 28 28 28 29 29 29 29 29 29 30 30 30 30 30 31 31 31 31 31 31 31 31 32 32 32 32 32 33 33
15 14 14 15 17 19 22 22 22 22 21 17 14 12 11 12 11 11 10 10 9 9 9 10 10 10 10 9 9 8 8 7 7 7 7 7 8 9 9 8 9 10 12 11 11 11 12 12 12 12 12 13 17 20 23 25 26 26 27 27 28 28 28 29 29 29 30 30 30 30 31 31 31 31 31 31 32 32 32 32 32 32 32 33 32 32
20 20 21 22 23 24 25 25 25 25 25 23 20 17 14 12 11 10 10 9 8 9 9 10 10 10 10 9 9 9 8 7 7 7 7 8 8 9 8 8 9 10 12 11 11 11 12 13 12 12 12 11 13 15 20 22 24 25 26 26 27 28 28 29 29 30 30 30 30 31 31 31 31 31 31 32 32 32 32 32 32 32 32 31 29 27
18 19 20 21 22 23 24 24 24 23 23 23 23 22 17 12 10 10 10 9 8 9 9 10 10 10 9 9 9 9 9 8 7 7 7 7 7 7 8 8 9 10 11 11 11 11 12 12 12 11 11 11 11 12 16 19 21 23 24 26 27 28 28 29 29 29 30 30 30 30 30 31 31 31 31 31 32 32 32 32 32 32 30 26 21 17
15 17 19 20 21 21 22 21 21 21 21 22 22 20 15 11 9 9 9 9 9 9 9 10 10 9 9 10 10 10 9 8 8 7 7 7 7 7 8 8 9 9 9 10 10 10 9 9 9 9 10 11 11 11 12 15 18 19 21 23 25 26 26 27 28 28 28 29 29 29 30 30 30 31 31 31 31 31 32 32 32 29 24 19 16 14
13 15 16 17 17 17 17 16 16 17 18 19 19 17 13 9 8 8 9 8 8 9 10 10 10 9 9 10 10 9 8 7 7 7 7 7 7 7 8 9 9 9 8 8 9 8 8 7 7 8 9 11 11 11 11 12 13 14 15 18 19 21 23 25 26 26 27 28 28 29 29 29 30 30 30 30 31 31 32 33 31 25 18 15 14 14
12 13 12 13 13 13 12 12 12 12 14 15 15 14 11 9 8 8 8 8 8 8 9 9 10 9 9 8 8 7 6 7 7 8 8 6 6 7 9 9 9 9 7 7 7 8 9 7 7 7 9 11 11 11 11 11 11 11 11 12 13 15 19 22 23 24 25 26 26 27 28 28 29 29 30 30 30 31 31 32 30 24 16 14 14 14
11 11 10 11 10 10 9 9 9 9 10 10 10 10 10 9 8 8 7 7 7 8 8 9 9 9 9 8 8 8 7 7 9 10 9 7 6 7 8 9 9 9 8 7 7 8 8 8 8 8 9 10 10 11 11 11 11 11 11 11 11 13 17 18 20 20 20 22 23 25 26 27 27 28 29 29 30 30 31 32 30 25 17 14 14 14
11 10 9 10 9 9 8 8 8 8 8 8 8 8 8 9 9 8 7 7 7 7 8 9 9 10 9 10 9 9 8 9 10 11 11 8 6 6 7 9 9 9 9 8 8 8 7 8 9 9 9 9 10 10 11 11 11 11 11 11 11 12 14 15 15 15 16 17 19 20 22 24 25 26 27 28 29 29 30 31 30 26 21 15 13 13
11 10 10 10 9 8 8 8 8 8 8 8 8 8 8 8 8 8 8 8 7 7 8 8 9 9 9 9 9 10 10 10 11 12 12 9 7 7 8 9 9 10 9 9 8 8 7 9 10 10 9 9 9 10 10 11 11 10 10 10 10 11 12 12 12 12 13 13 14 14 16 17 19 21 23 25 26 27 28 29 29 29 26 20 16 14
10 10 10 9 9 9 9 9 9 9 8 8 8 8 8 8 8 8 8 8 8 8 8 8 8 9 9 9 10 10 11 11 12 13 13 10 8 7 8 9 9 9 9 9 8 8 8 9 10 11 10 10 10 9 9 9 10 9 9 10 10 10 11 11 11 11 12 12 12 12 12 12 13 15 17 20 22 24 26 28 29 29 29 26 23 18
9 9 9 9 9 9 9 9 9 9 9 8 8 8 8 9 9 9 9 9 9 9 9 9 9 9 9 9 10 10 11 12 13 14 14 11 9 8 8 8 9 9 9 10 9 9 9 10 11 11 12 11 11 10 9 9 9 10 10 10 10 10 10 11 11 11 11 11 11 11 11 11 11 12 14 18 22 24 26 28 29 30 30 30 29 26
9 9 9 9 8 8 9 9 9 9 9 8 8 9 9 9 10 10 10 9 9 10 10 11 11 10 11 10 10 11 12 12 13 14 14 12 11 9 8 8 9 10 9 9 9 10 10 10 11 11 11 10 10 9 9 10 10 10 10 10 10 10 11 11 11 11 11 11 12 12 12 12 12 13 14 18 21 23 24 26 27 28 29 30 30 30
9 9 8 8 8 8 8 8 8 8 8 9 9 9 10 10 11 11 11 11 11 11 11 10 10 11 14 14 14 13 13 14 15 16 16 14 11 10 9 9 9 10 9 9 9 10 10 10 11 11 10 10 10 11 11 11 11 11 11 11 11 11 11 10 10 10 10 11 12 13 14 13 13 13 13 15 15 15 16 17 19 21 24 25 26 28
8 9 9 8 8 8 8 8 8 8 9 9 9 10 10 11 12 12 11 11 11 11 11 11 11 11 13 14 14 15 15 15 16 16 16 14 12 10 10 10 10 10 10 9 9 9 10 10 10 10 10 10 11 11 11 11 11 12 12 12 11 11 10 10 10 10 11 11 13 14 14 13 12 12 12 12 12 12 12 13 14 15 16 15 17 21
9 9 9 9 9 8 8 9 9 9 9 9 10 10 10 10 10 10 10 10 10 11 12 12 11 11 11 12 12 13 14 13 13 14 14 12 11 10 9 10 10 10 10 9 9 9 9 10 10 11 11 11 11 11 11 11 11 12 13 11 11 10 11 11 11 11 11 11 12 12 12 12 12 12 12 12 12 12 12 12 12 13 13 11 11 12
9 9 9 9 9 9 9 9 9 9 9 9 9 9 9 9 9 9 9 10 10 10 10 10 10 10 11 11 11 11 12 12 13 13 12 12 12 11 10 9 9 9 9 9 9 9 9 10 11 11 11 11 12 12 13 13 13 14 14 12 11 12 13 13 12 11 11 11 11 12 13 13 13 13 12 12 12 12 12 12 13 13 12 11 10 10
10 9 9 8 8 8 9 9 10 10 10 9 9 8 8 8 8 9 9 9 9 9 9 9 9 10 11 11 11 10 10 10 11 11 11 12 12 11 10 10 9 9 9 9 9 10 10 10 11 11 11 11 11 11 11 13 13 13 12 12 13 13 13 13 11 10 10 11 11 12 14 13 13 12 13 13 12 12 13 13 14 15 14 12 11 10
9 9 9 9 9 9 10 10 10 9 9 8 8 8 8 8 8 9 9 9 10 10 10 9 9 10 11 11 11 10 9 9 9 10 10 11 11 11 11 11 10 9 9 9 9 10 10 11 11 11 11 10 10 11 12 13 13 13 12 12 12 11 9 10 10 10 11 12 12 12 12 12 12 12 12 12 12 12 13 14 15 16 15 13 11 11
8 8 8 9 9 9 9 9 9 8 8 8 8 8 8 8 9 9 9 9 10 10 10 9 9 9 10 11 11 11 10 10 10 10 10 11 11 11 10 11 10 10 9 9 9 9 10 10 10 10 10 10 10 10 11 12 12 12 12 12 12 11 10 11 12 12 13 13 12 12 12 13 13 12 12 12 12 12 11 11 11 12 13 12 11 11
8 8 8 8 8 9 9 9 9 9 9 8 8 8 8 9 9 9 8 9 10 10 9 9 8 8 9 10 10 10 10 10 9 9 8 10 11 12 10 9 9 9 9 9 9 8 9 9 10 10 10 9 10 10 11 12 12 12 12 12 12 12 12 12 12 13 13 13 13 13 14 14 14 13 13 12 11 11 11 11 10 10 10 10 10 11
8 8 9 8 8 9 9 9 9 9 9 9 9 9 9 9 8 8 9 9 10 10 9 9 8 8 9 10 10 10 10 10 9 9 8 8 8 8 8 8 8 8 8 8 9 9 9 10 10 10 10 10 10 11 11 11 11 11 11 12 12 11 12 12 12 12 12 13 14 15 16 16 15 13 12 12 12 11 11 10 10 10 10 10 10 10
8 9 9 9 9 9 9 9 9 9 9 9 9 9 9 9 9 9 9 9 9 9 9 9 9 9 10 10 10 10 10 11 10 10 9 8 8 8 7 7 8 8 8 8 9 10 10 11 11 11 10 10 10 11 11 10 10 10 11 11 11 11 11 11 11 11 12 12 14 15 17 16 15 13 13 12 12 11 11 10 9 9 9 9 9 10
9 9 9 9 9 9 9 9 9 9 10 10 10 9 9 9 9 10 9 9 9 9 9 9 9 9 10 10 10 10 10 11 11 10 10 9 9 8 8 8 7 8 8 9 10 10 11 11 12 12 11 10 10 10 10 10 10 10 10 11 11 11 11 12 11 11 12 13 14 16 17 15 14 13 13 13 12 11 11 11 10 8 8 8 9 9
9 9 9 9 9 9 9 9 10 10 10 10 10 10 10 10 11 11 9 9 9 8 8 9 9 10 10 10 10 10 11 11 10 10 9 9 9 8 8 8 8 8 8 8 9 9 9 10 11 12 11 11 10 10 10 10 10 10 10 10 10 10 11 11 12 12 12 13 15 16 16 14 12 12 12 13 13 13 13 12 11 9 8 8 8 9
9 9 9 9 9 9 10 10 10 10 10 11 11 11 10 10 10 9 9 8 8 8 8 9 9 10 10 10 10 11 11 10 10 9 9 9 8 8 9 9 9 9 9 8 8 8 7 7 7 9 11 11 11 10 9 10 10 10 10 10 10 10 10 11 11 12 12 13 14 15 15 14 12 11 11 12 13 14 14 13 12 10 9 8 8 9
9 9 9 9 9 9 10 10 10 10 10 10 11 11 11 10 10 9 9 9 9 9 9 9 9 9 10 10 11 11 11 10 10 10 9 8 8 8 9 9 9 9 9 9 9 8 7 7 6 6 6 8 9 9 8 8 9 10 10 10 9 9 9 10 11 12 13 13 13 14 14 13 12 12 11 11 12 13 13 13 13 13 12 11 11 11
Wind_Direction
297 300 301 299 297 294 292 293 294 295 295 296 296 297 297 297 296 294 295 295 295 295 294 293 292 291 292 292 293 293 294 294 294 294 294 293 293 293 293 292 292 291 291 291 291 291 292 293 293 293 294 294 294 293 293 292 292 291 291 290 289 288 288 287 286 285 284 283 283 282 282 281 281 280 280 279 279 279 278 277 275 274 273 273 273 273
297 297 296 296 295 294 293 295 295 295 296 297 298 298 297 297 296 296 296 295 295 294 293 292 292 292 293 294 294 294 294 293 292 292 292 292 292 292 293 292 292 292 292 292 293 293 294 295 295 295 295 295 294 293 293 292 291 290 289 288 287 287 286 285 284 284 283 282 282 281 281 280 279 278 278 277 277 277 276 275 275 274 274 273 273 272
298 296 294 295 295 296 296 298 297 295 295 296 297 297 297 297 297 297 297 296 294 292 291 291 293 294 295 295 294 293 292 291 291 291 292 292 292 293 293 294 294 294 294 294 294 294 294 294 294 294 293 293 292 291 291 290 289 288 287 287 286 285 285 284 283 282 282 281 281 280 279 279 278 277 277 276 276 275 274 274 273 273 273 273 271 269
295 296 298 298 296 295 295 297 298 297 295 295 295 296 297 297 298 299 298 296 293 291 291 292 294 295 295 294 293 292 291 291 291 292 292 293 294 294 295 295 294 294 294 293 293 292 292 292 291 291 291 290 290 289 289 288 288 287 286 286 285 285 284 283 283 282 282 281 280 280 279 279 279 279 279 278 277 276 275 275 274 273 273 272 270 268
294 296 299 299 297 294 294 295 296 296 296 295 296 298 300 301 300 297 293 291 290 292 293 295 295 295 293 292 292 292 292 292 293 294 294 294 295 295 295 294 293 292 292 291 290 290 289 289 289 289 289 289 289 289 289 288 288 287 287 286 286 285 285 285 284 284 283 283 282 282 282 283 283 283 282 282 281 281 280 278 277 276 275 274 272 271
293 294 296 296 295 294 295 295 296 296 296 297 300 302 304 301 297 292 289 290 292 294 295 294 294 293 293 293 294 294 295 295 295 295 295 294 294 293 292 291 291 290 289 288 288 287 288 288 288 289 289 289 289 289 289 288 288 288 287 287 287 287 287 287 287 287 286 286 286 285 286 286 285 285 285 284 283 283 282 281 280 279 278 277 275 274
291 290 291 290 290 290 292 294 297 300 302 303 304 302 297 293 291 291 293 295 295 295 293 293 293 294 295 296 297 297 297 296 295 294 293 292 291 290 289 289 288 288 287 287 287 287 287 288 289 289 290 290 290 289 289 289 288 288 288 289 289 289 289 289 289 289 288 288 288 287 287 287 286 285 284 284 283 283 282 281 281 280 279 278 277 276
291 289 286 287 288 290 291 293 298 302 304 303 301 298 294 293 292 293 294 294 294 294 296 297 297 298 298 299 299 298 297 295 294 292 291 290 289 288 288 287 287 287 287 287 287 287 288 289 289 290 290 290 289 289 289 289 289 290 290 290 291 291 291 290 290 289 289 289 288 288 287 287 286 285 284 283 282 282 281 280 280 279 278 277 276 275
287 288 287 287 289 293 294 295 296 297 295 294 295 297 299 298 297 295 295 295 297 299 302 303 302 301 299 299 297 295 292 290 289 288 288 288 287 287 287 287 287 287 287 287 287 288 288 289 289 289 289 289 289 289 289 290 290 291 291 291 291 291 290 290 289 288 288 288 288 287 287 286 286 285 284 283 282 281 280 279 278 278 277 276 275 274
282 283 286 287 289 290 292 295 295 292 287 286 288 291 295 299 301 302 303 303 304 305 304 302 301 300 298 296 294 291 290 288 287 287 287 287 288 288 288 288 287 287 287 287 287 288 288 288 288 288 289 289 289 290 290 290 290 290 290 290 289 289 288 288 287 287 287 287 287 286 286 285 285 284 283 282 281 280 279 278 277 276 275 274 274 273
280 280 283 286 287 286 283 290 294 296 294 291 289 289 291 299 305 309 309 308 307 306 302 298 297 297 297 296 294 292 291 289 289 288 288 288 288 288 288 287 286 286 286 286 287 287 287 287 288 288 288 288 289 289 289 289 288 288 288 288 287 287 287 287 287 286 286 286 286 285 285 284 283 282 281 280 279 278 277 276 275 274 274 273 272 271
279 282 285 288 291 293 291 293 295 298 299 299 299 300 302 307 310 310 308 306 305 304 301 297 294 292 293 294 295 294 293 291 290 290 290 289 289 288 288 287 286 285 286 286 286 286 286 287 287 287 287 287 287 287 286 286 286 286 286 286 286 287 286 286 286 286 285 285 284 284 283 282 281 280 279 278 277 276 275 274 273 272 272 271 270 269
281 285 289 294 298 300 301 302 303 304 305 306 307 308 309 312 311 307 301 300 299 299 299 296 293 291 291 292 293 294 293 291 290 291 292 291 291 291 290 288 287 286 286 286 285 286 286 287 286 286 286 285 285 285 285 285 285 285 285 286 286 286 285 285 284 284 283 283 282 281 281 280 279 278 277 276 275 274 273 272 271 270 270 269 268 267
290 298 301 301 302 303 304 305 306 307 308 308 308 308 308 308 306 302 297 294 294 294 294 294 294 294 294 293 292 292 292 291 291 292 292 291 292 293 293 290 289 288 288 288 287 286 287 287 286 285 285 284 284 284 284 284 284 284 285 285 285 284 284 284 283 283 282 281 280 280 279 278 277 276 275 274 273 272 271 270 269 268 268 267 266 265
308 310 307 304 303 304 305 306 306 306 306 307 307 305 304 302 299 297 294 293 293 294 295 294 293 292 291 293 294 295 295 295 295 295 294 293 293 294 295 292 291 289 288 287 286 286 287 286 285 284 284 283 283 283 283 284 284 284 285 285 285 284 284 283 283 282 281 281 280 279 278 277 276 275 274 273 272 271 270 269 268 267 266 265 264 264
312 309 305 303 302 302 303 305 305 304 305 305 304 302 299 297 295 294 292 293 295 296 296 297 296 296 293 294 297 299 299 298 296 296 295 294 294 295 296 294 291 289 287 286 286 287 287 285 284 283 282 282 282 283 283 284 284 285 285 285 285 285 285 284 284 283 283 282 281 280 279 278 277 276 275 274 273 272 271 270 269 268 267 266 265 265
306 303 301 300 300 301 303 304 303 302 302 301 298 295 293 292 292 292 292 292 293 294 294 298 301 303 302 302 301 302 304 301 299 297 296 294 294 296 296 293 290 288 288 287 287 287 287 285 283 281 281 282 283 284 285 285 286 286 286 286 286 286 286 285 285 284 283 282 282 281 280 279 278 277 276 275 274 273 272 271 271 270 269 268 268 267
300 300 299 298 299 301 303 303 301 299 297 295 293 291 288 289 290 291 290 290 291 293 297 300 301 301 303 303 304 307 310 306 302 299 296 293 293 295 296 292 288 287 287 286 286 285 285 284 283 283 283 284 285 285 286 287 287 287 287 287 286 286 286 285 285 284 284 283 282 282 281 280 279 278 277 276 276 275 274 273 273 272 271 271 270 270
297 297 298 298 299 300 300 298 297 296 294 292 292 291 289 290 290 289 287 288 291 296 300 300 298 295 294 294 298 305 312 308 303 298 295 293 294 295 297 292 288 285 285 285 286 287 286 285 284 284 284 285 285 286 286 286 286 286 286 286 286 286 286 286 286 285 285 285 284 283 282 281 281 280 279 278 277 276 275 274 273 273 272 271 271 270
296 295 295 296 297 296 294 292 291 291 291 291 291 291 290 290 290 290 291 294 297 298 297 295 293 292 292 293 297 303 311 308 302 296 292 292 293 295 297 293 289 286 285 286 287 288 287 286 285 284 284 284 284 285 285 286 286 286 286 287 287 287 287 287 287 287 286 285 284 283 283 282 281 280 279 278 277 276 275 274 273 272 272 271 270 269
293 292 291 292 293 292 290 289 289 289 289 291 290 289 288 291 295 298 301 301 300 296 293 290 290 292 294 296 299 302 308 306 301 295 292 291 292 294 297 294 290 288 287 288 290 290 288 287 286 284 283 284 285 285 286 287 287 288 288 288 288 288 288 287 286 285 285 284 283 282 281 281 280 279 278 277 276 275 274 273 272 271 270 269 269 268
289 289 289 289 288 286 284 284 285 286 288 289 289 290 294 302 304 304 303 301 298 295 293 291 292 293 294 294 295 298 303 300 296 293 293 292 292 293 297 296 293 291 290 292 293 292 290 288 286 285 286 287 288 288 288 288 288 288 288 287 287 287 286 285 285 284 283 282 282 281 280 280 279 278 277 276 275 274 273 272 271 270 269 268 267 266
285 286 289 288 286 284 283 284 285 287 289 290 292 295 301 304 303 301 300 297 295 294 293 291 291 291 289 290 291 294 296 294 292 290 290 290 292 296 301 299 295 292 291 293 295 295 292 290 289 289 289 289 289 288 288 287 287 287 287 287 287 286 286 285 284 284 283 282 281 281 280 279 278 277 277 276 275 274 273 272 271 270 269 268 266 265
287 288 289 287 285 282 281 284 289 294 298 299 299 299 299 297 295 294 293 292 292 291 291 291 290 290 289 290 292 293 295 295 294 292 288 287 290 295 301 301 297 294 292 294 297 297 295 292 290 289 289 288 287 287 287 287 287 287 287 287 287 286 286 285 285 284 283 282 281 281 280 279 279 278 277 276 275 275 274 273 272 271 270 269 268 267
289 288 288 287 287 290 294 298 301 303 304 303 302 300 299 297 295 293 291 290 290 290 292 293 293 294 294 296 295 295 295 297 296 293 288 287 289 293 299 301 299 295 294 296 297 297 295 292 290 289 287 287 287 287 287 287 287 287 287 287 287 287 286 286 285 284 284 283 283 282 282 281 281 280 279 278 277 276 276 275 274 273 272 271 270 269
291 290 291 295 298 301 303 304 304 304 303 302 301 301 300 299 297 295 292 292 293 296 298 297 296 296 297 297 296 295 297 299 297 292 288 288 291 294 299 301 298 295 295 296 297 296 294 292 291 290 289 288 287 287 287 287 287 287 287 287 287 287 287 287 286 286 286 285 285 284 284 283 282 281 281 280 279 277 276 275 274 273 272 272 271 269
293 295 297 300 303 304 304 303 303 302 302 302 301 301 301 300 298 296 294 296 300 302 302 299 297 297 298 296 296 297 301 301 298 293 289 289 290 293 298 301 299 297 296 296 296 295 293 292 292 291 291 289 288 288 288 288 288 288 288 288 288 288 288 288 288 287 286 286 285 284 283 283 282 281 280 279 278 277 276 275 274 273 272 271 270 268
296 300 303 304 304 303 303 302 302 302 302 301 300 300 300 299 297 296 296 301 303 303 298 296 296 297 297 297 297 298 300 298 296 295 296 292 290 292 298 301 301 299 298 296 294 292 291 290 290 290 290 290 290 290 291 291 291 291 290 290 289 289 288 287 287 286 285 284 284 283 282 281 280 279 279 278 277 276 275 274 274 273 272 271 268 265
301 303 304 303 303 303 302 302 302 301 300 299 299 300 300 298 295 294 296 301 301 298 294 293 293 294 295 296 297 296 296 294 296 301 306 299 292 291 298 300 301 301 301 299 296 292 288 287 289 292 293 295 296 296 296 296 294 292 290 288 287 286 286 285 284 284 284 283 283 282 281 281 280 280 279 278 278 277 276 276 275 274 273 270 267 264
308 307 305 304 303 303 302 301 299 298 298 298 299 300 300 296 292 290 293 295 295 293 291 292 293 294 295 297 297 296 293 295 303 311 313 302 295 294 300 300 301 302 304 304 302 299 293 291 293 296 299 300 300 298 296 295 292 290 288 287 286 285 284 284 284 284 283 283 283 283 283 282 282 281 280 280 279 278 278 277 277 276 273 270 267 264
311 309 307 305 304 303 301 299 297 297 298 300 301 301 299 295 291 289 289 290 289 289 289 291 292 293 295 297 297 296 294 300 308 313 312 301 294 295 302 300 300 301 303 304 304 304 303 302 301 301 302 301 298 296 293 292 290 289 288 287 286 285 284 285 285 285 286 286 285 285 285 284 284 283 282 281 280 279 278 278 277 275 273 269 266 264
309 307 305 304 303 301 300 299 299 299 300 302 301 300 297 294 292 290 289 288 286 286 287 289 290 290 290 289 288 289 292 298 305 309 308 300 294 295 299 298 298 299 299 297 296 296 301 304 306 306 305 300 297 294 292 291 290 290 289 289 288 287 287 288 288 288 288 288 287 287 286 285 284 283 282 281 280 279 278 277 276 274 271 268 265 263
306 304 303 302 301 301 300 301 302 303 303 302 301 299 297 295 294 293 290 287 285 284 285 287 288 288 287 285 284 284 286 291 299 304 307 301 296 294 297 296 296 297 298 294 290 287 288 295 300 303 303 299 296 295 294 293 291 290 290 290 289 288 289 290 290 289 289 288 288 287 286 285 283 282 281 280 279 279 277 276 275 273 269 266 264 262
304 303 302 302 302 302 303 304 304 304 303 302 300 300 299 298 297 296 293 290 286 283 282 283 285 287 288 287 285 285 286 290 296 302 306 301 296 294 296 296 296 297 299 295 292 289 285 289 294 299 301 299 296 295 294 294 293 291 290 289 288 289 290 291 291 289 288 288 287 286 284 283 281 280 279 279 278 277 276 275 273 271 268 265 262 260
303 303 303 304 305 306 307 307 306 305 304 302 302 302 302 301 299 298 295 291 288 284 281 279 279 281 283 285 286 287 288 292 297 302 303 298 294 293 295 294 295 296 297 295 295 294 291 291 294 296 299 299 298 295 293 294 294 294 291 289 288 288 289 290 290 289 288 287 285 283 281 280 278 277 276 276 275 275 274 274 272 271 269 266 263 260
303 303 305 307 308 309 309 308 308 307 306 304 304 304 304 302 300 298 295 292 289 287 284 280 277 275 274 276 279 282 286 290 295 297 297 294 292 291 291 291 292 294 293 293 294 295 294 294 294 295 296 297 297 297 297 298 299 298 295 293 291 289 288 288 287 286 286 285 283 281 280 278 276 275 274 274 274 274 274 273 272 271 269 267 264 261
303 304 307 309 310 309 309 308 308 307 306 306 306 306 305 302 300 298 296 293 290 288 286 283 280 276 272 271 271 274 279 284 288 290 290 288 287 285 285 286 288 289 289 290 292 294 295 295 296 295 294 293 294 298 302 305 305 303 299 297 296 293 290 288 286 284 282 281 281 281 280 279 278 277 277 276 276 276 275 273 272 270 269 267 265 263
304 306 308 310 310 309 308 307 307 306 306 306 306 306 304 301 299 298 296 293 290 288 287 285 283 280 277 274 272 272 274 277 280 282 282 282 281 281 281 283 284 285 284 285 288 290 293 294 296 297 296 293 293 295 300 304 305 304 302 301 298 294 290 289 287 285 283 282 282 282 282 281 280 279 279 278 277 276 274 272 270 268 268 266 265 263
306 308 309 310 310 309 308 307 305 305 305 305 304 303 301 299 298 296 295 293 292 290 289 288 286 284 281 278 276 275 275 275 276 277 278 278 277 277 278 280 282 283 282 282 282 283 285 287 291 293 295 296 297 298 299 300 301 301 302 302 299 295 291 291 291 290 287 285 285 284 283 281 280 278 277 277 276 274 272 270 269 267 266 264 263 262
308 308 308 309 308 307 305 304 303 303 303 303 301 300 299 298 297 297 296 295 295 293 292 290 288 286 285 283 281 279 278 276 276 276 276 273 271 271 274 277 280 282 282 280 278 278 279 281 283 286 288 291 294 297 299 297 297 299 303 303 301 299 299 299 296 292 288 284 283 283 283 283 281 279 277 275 273 271 270 270 270 268 265 262 261 261
309 308 308 308 307 305 302 302 302 302 302 301 301 300 300 300 300 301 302 301 300 298 297 296 294 292 290 288 286 283 280 276 274 273 272 269 268 268 270 273 276 278 280 280 279 278 278 281 283 285 287 288 290 291 291 292 294 296 298 296 294 294 297 296 294 291 288 286 285 285 286 286 285 283 280 277 273 270 269 269 269 269 266 260 255 253
308 307 307 307 306 305 304 303 302 301 300 299 299 299 299 301 302 303 304 304 304 304 305 304 302 300 298 296 293 288 282 277 274 273 272 269 268 268 269 270 272 274 277 279 280 281 281 282 284 285 285 287 288 289 289 290 292 294 293 291 292 294 295 293 292 292 294 293 292 291 289 288 286 284 282 280 276 273 270 267 266 266 265 260 255 250
306 305 305 304 304 303 303 303 303 302 301 300 299 299 299 300 301 301 302 303 303 304 305 304 302 301 300 300 299 297 293 287 283 280 278 275 273 271 270 269 269 270 274 279 282 284 284 283 282 281 281 283 284 285 286 289 291 292 290 291 294 298 300 300 302 303 301 297 294 292 289 287 286 285 284 282 280 276 273 269 266 263 261 260 256 253
304 303 303 303 303 303 303 303 303 302 302 301 300 300 300 300 300 301 301 300 300 301 302 302 300 299 297 297 299 302 302 299 295 290 285 279 275 272 272 272 272 273 275 278 281 284 286 284 282 280 281 281 281 281 282 285 288 290 290 292 292 293 291 296 301 303 301 298 295 293 291 290 289 288 287 284 281 277 273 269 265 261 257 255 254 254
302 303 304 305 305 305 304 303 303 303 302 301 301 300 301 302 302 302 300 299 300 300 301 301 301 299 297 299 301 304 305 305 303 299 291 282 278 277 278 279 280 279 277 275 275 277 282 284 285 285 284 282 279 278 278 281 283 286 288 290 291 289 286 289 293 296 298 298 298 297 297 296 296 295 292 289 286 282 277 273 270 266 261 257 255 255
304 305 306 306 305 305 303 304 304 304 303 303 302 302 304 305 304 302 300 300 300 300 300 300 299 298 298 301 303 305 306 306 306 305 302 296 291 287 285 284 283 282 279 276 274 273 274 277 281 284 286 283 279 275 272 275 279 283 287 291 293 293 291 292 293 295 297 299 300 300 300 300 300 298 295 294 293 291 286 280 274 271 268 264 260 258
307 308 307 306 305 304 304 304 305 305 305 305 305 306 306 306 305 303 301 301 300 300 300 299 298 296 296 299 301 303 304 305 306 307 307 306 305 302 297 293 289 286 283 280 277 274 271 270 271 274 278 280 280 279 276 275 278 282 288 293 295 296 296 296 296 297 299 299 299 300 303 303 303 301 298 299 298 297 294 289 282 275 271 267 265 263
308 307 306 305 305 305 305 306 307 307 307 307 308 307 308 307 307 305 303 303 301 300 300 300 299 298 297 298 300 300 301 302 304 305 307 309 309 309 308 304 299 294 288 283 280 276 271 266 262 261 263 266 271 276 279 281 283 286 290 293 295 296 296 297 299 300 301 299 299 300 302 304 304 303 304 305 304 303 303 301 296 288 278 271 270 270
306 305 304 304 305 305 305 307 308 308 307 308 308 308 308 307 307 305 303 302 301 300 299 299 299 299 299 300 300 300 300 301 302 303 306 308 310 311 311 311 309 305 300 294 289 282 276 266 257 250 246 247 254 264 274 281 286 290 292 294 295 296 297 299 301 303 304 302 302 301 301 301 301 302 305 306 307 308 309 308 305 300 292 283 279 277
304 303 302 303 303 304 305 306 307 307 306 306 307 307 307 307 307 305 302 301 300 299 298 298 298 298 299 299 300 301 302 303 303 304 305 308 310 312 313 314 314 313 311 308 306 303 299 287 269 252 239 235 238 248 266 278 287 293 296 296 297 299 299 301 303 305 306 306 305 305 304 303 304 305 307 308 309 310 312 312 311 310 307 303 298 293
304 303 303 303 303 303 304 305 305 305 304 304 305 305 306 306 306 306 305 304 302 301 299 298 297 296 297 298 300 301 302 303 303 304 305 307 310 312 313 314 316 317 317 317 318 319 319 318 312 296 265 242 235 237 256 276 288 296 298 299 300 301 302 302 304 306 307 307 307 307 308 309 311 313 315 313 313 314 316 317 317 317 318 318 316 312